| time (UTC) | temp F | wind direction | speed knots | gust knots | rain 1hr in | rain 24hr in | rain mn in | humidity % | barometer mb |
| 20260506174550 | 62 | 219 | 1.7 | 8.7 | 0.00 | 0.10 | 0.00 | 63 | 1009.7 |
| 20260506173043 | 64 | 207 | 2.6 | 8.7 | 0.00 | 0.10 | 0.00 | 60 | 1009.6 |
| 20260506171547 | 64 | 233 | 3.5 | 9.6 | 0.00 | 0.10 | 0.00 | 56 | 1009.4 |
| 20260506170053 | 65 | 203 | 1.7 | 8.7 | 0.00 | 0.10 | 0.00 | 54 | 1009.4 |
| 20260506164539 | 65 | 258 | 1.7 | 6.1 | 0.00 | 0.40 | 0.00 | 54 | 1009.4 |
| 20260506163057 | 64 | 192 | 2.6 | 7.8 | 0.00 | 0.40 | 0.00 | 54 | 1009.3 |
| 20260506161545 | 64 | 230 | 4.3 | 9.6 | 0.00 | 0.40 | 0.00 | 53 | 1009.2 |
| 20260506160047 | 65 | 179 | 5.2 | 12.2 | 0.00 | 0.40 | 0.00 | 53 | 1009.1 |
| 20260506154606 | 66 | 148 | 5.2 | 11.3 | 0.00 | 0.44 | 0.00 | 53 | 1009.0 |
| 20260506153054 | 65 | 203 | 4.3 | 13.0 | 0.00 | 0.44 | 0.00 | 53 | 1008.9 |
| 20260506151541 | 66 | 161 | 4.3 | 13.0 | 0.00 | 0.44 | 0.00 | 52 | 1009.0 |
| 20260506150038 | 66 | 86 | 4.3 | 12.2 | 0.00 | 0.44 | 0.00 | 52 | 1008.9 |
| 20260506144538 | 66 | 214 | 5.2 | 10.4 | 0.00 | 0.44 | 0.00 | 52 | 1009.1 |
| 20260506143058 | 66 | 171 | 3.5 | 13.0 | 0.00 | 0.44 | 0.00 | 53 | 1009.2 |
| 20260506141542 | 65 | 170 | 4.3 | 8.7 | 0.00 | 0.44 | 0.00 | 55 | 1009.3 |
| 20260506140049 | 65 | 196 | 3.5 | 10.4 | 0.00 | 0.44 | 0.00 | 55 | 1009.7 |
| 20260506134546 | 66 | 205 | 2.6 | 9.6 | 0.00 | 0.44 | 0.00 | 56 | 1009.7 |
| 20260506133045 | 66 | 216 | 2.6 | 6.1 | 0.00 | 0.44 | 0.00 | 52 | 1009.8 |
| 20260506131543 | 65 | 306 | 1.7 | 6.1 | 0.00 | 0.44 | 0.00 | 52 | 1009.7 |
| 20260506130041 | 64 | 323 | 0.9 | 3.5 | 0.00 | 0.44 | 0.00 | 56 | 1009.7 |
| 20260506124541 | 64 | 143 | 1.7 | 4.3 | 0.00 | 0.44 | 0.00 | 54 | 1009.8 |
| 20260506123050 | 64 | 142 | 2.6 | 7.8 | 0.00 | 0.44 | 0.00 | 57 | 1010.0 |
| 20260506121543 | 64 | 181 | 4.3 | 8.7 | 0.00 | 0.44 | 0.00 | 56 | 1010.1 |
| 20260506120052 | 64 | 146 | 4.3 | 8.7 | 0.00 | 0.44 | 0.00 | 56 | 1010.0 |
| 20260506114557 | 64 | 196 | 3.5 | 8.7 | 0.00 | 0.44 | 0.00 | 56 | 1010.0 |
| 20260506113046 | 64 | 269 | 2.6 | 5.2 | 0.00 | 0.44 | 0.00 | 57 | 1010.0 |
| 20260506111551 | 63 | 199 | 1.7 | 6.1 | 0.00 | 0.44 | 0.00 | 59 | 1010.1 |
| 20260506110055 | 63 | 163 | 1.7 | 5.2 | 0.00 | 0.44 | 0.00 | 57 | 1010.2 |
| 20260506104550 | 64 | 146 | 0.0 | 4.3 | 0.00 | 0.44 | 0.00 | 54 | 1010.2 |
| 20260506103042 | 63 | 108 | 1.7 | 5.2 | 0.00 | 0.44 | 0.00 | 55 | 1010.4 |
| 20260506101547 | 62 | 201 | 0.9 | 6.1 | 0.00 | 0.44 | 0.00 | 57 | 1010.6 |
| 20260506100047 | 62 | 280 | 0.9 | 5.2 | 0.00 | 0.44 | 0.00 | 55 | 1010.9 |
| 20260506094605 | 61 | 198 | 1.7 | 6.1 | 0.00 | 0.44 | 0.00 | 60 | 1010.9 |
| 20260506093057 | 62 | 239 | 1.7 | 6.1 | 0.00 | 0.44 | 0.00 | 63 | 1011.0 |
| 20260506091544 | 61 | 142 | 2.6 | 4.3 | 0.00 | 0.44 | 0.00 | 63 | 1010.9 |
| 20260506090049 | 59 | 93 | 0.0 | 3.5 | 0.00 | 0.44 | 0.00 | 70 | 1010.8 |
| 20260506084549 | 58 | 23 | 0.9 | 3.5 | 0.00 | 0.44 | 0.00 | 72 | 1010.8 |
| 20260506083047 | 59 | 0 | 0.0 | 0.9 | 0.00 | 0.44 | 0.00 | 73 | 1010.8 |
| 20260506081550 | 57 | 115 | 0.0 | 2.6 | 0.00 | 0.44 | 0.00 | 78 | 1010.6 |
| 20260506073050 | 53 | 312 | 0.0 | 3.5 | 0.00 | 0.44 | 0.00 | 89 | 1010.6 |
| 20260506071542 | 52 | 0 | 0.0 | 0.0 | 0.00 | 0.44 | 0.00 | 97 | 1010.5 |
| 20260506061543 | 46 | 0 | 0.0 | 0.0 | 0.00 | 0.44 | 0.00 | 98 | 1010.4 |
| 20260506044552 | 41 | 0 | 0.0 | 0.9 | 0.00 | 0.44 | 0.00 | 97 | 1010.0 |
| 20260506043050 | 42 | 0 | 0.0 | 0.0 | 0.00 | 0.44 | 0.00 | 97 | 1010.1 |
| 20260506041548 | 42 | 0 | 0.0 | 0.0 | 0.00 | 0.44 | 0.00 | 97 | 1010.0 |
| 20260506040059 | 42 | 0 | 0.0 | 0.0 | 0.00 | 0.44 | 0.00 | 97 | 1009.9 |
| 20260506034553 | 42 | 0 | 0.0 | 0.0 | 0.00 | 0.44 | 0.00 | 97 | 1009.8 |
| 20260506033046 | 43 | 0 | 0.0 | 0.0 | 0.00 | 0.44 | 0.00 | 97 | 1009.7 |
| 20260506031559 | 43 | 0 | 0.0 | 0.0 | 0.00 | 0.44 | 0.00 | 97 | 1009.7 |
| 20260506030051 | 43 | 0 | 0.0 | 0.0 | 0.00 | 0.44 | 0.00 | 97 | 1009.7 |
| 20260506024552 | 43 | 0 | 0.0 | 0.9 | 0.00 | 0.44 | 0.00 | 97 | 1009.7 |
| 20260506023044 | 44 | 0 | 0.0 | 0.0 | 0.00 | 0.44 | 0.00 | 97 | 1009.7 |
| 20260506021544 | 44 | 0 | 0.0 | 0.0 | 0.00 | 0.44 | 0.00 | 97 | 1009.6 |
| 20260506020049 | 44 | 0 | 0.0 | 0.0 | 0.00 | 0.44 | 0.00 | 97 | 1009.5 |
| 20260506014543 | 44 | 0 | 0.0 | 0.0 | 0.00 | 0.44 | 0.00 | 97 | 1009.6 |
| 20260506013048 | 44 | 0 | 0.0 | 0.9 | 0.00 | 0.44 | 0.00 | 97 | 1009.5 |
| 20260506011546 | 44 | 0 | 0.0 | 0.0 | 0.00 | 0.44 | 0.00 | 97 | 1009.5 |
| 20260506010047 | 45 | 0 | 0.0 | 0.9 | 0.00 | 0.44 | 0.00 | 96 | 1009.6 |
| 20260506004543 | 45 | 0 | 0.0 | 0.0 | 0.00 | 0.45 | 0.00 | 96 | 1009.8 |
| 20260506003042 | 46 | 0 | 0.0 | 0.0 | 0.00 | 0.45 | 0.00 | 96 | 1009.9 |
| 20260506001549 | 46 | 0 | 0.0 | 0.0 | 0.00 | 0.45 | 0.00 | 96 | 1009.9 |
| 20260506000047 | 46 | 0 | 0.0 | 0.0 | 0.00 | 0.45 | 0.00 | 96 | 1009.9 |
| 20260505234556 | 46 | 0 | 0.0 | 0.0 | 0.00 | 0.45 | 0.00 | 96 | 1010.1 |
| 20260505233043 | 47 | 0 | 0.0 | 0.0 | 0.00 | 0.45 | 0.00 | 96 | 1010.0 |
| 20260505231551 | 48 | 0 | 0.0 | 0.0 | 0.00 | 0.45 | 0.00 | 96 | 1010.1 |
| 20260505230042 | 48 | 0 | 0.0 | 0.0 | 0.00 | 0.45 | 0.00 | 96 | 1010.1 |
| 20260505224541 | 48 | 0 | 0.0 | 0.0 | 0.00 | 0.45 | 0.00 | 96 | 1010.2 |
| 20260505223049 | 49 | 0 | 0.0 | 0.0 | 0.00 | 0.45 | 0.00 | 96 | 1010.4 |
| 20260505221539 | 49 | 0 | 0.0 | 0.9 | 0.00 | 0.44 | 0.00 | 96 | 1010.3 |
| 20260505220046 | 49 | 0 | 0.0 | 0.9 | 0.00 | 0.44 | 0.00 | 96 | 1010.4 |
| 20260505214550 | 49 | 281 | 0.9 | 3.5 | 0.00 | 0.44 | 0.44 | 96 | 1010.6 |
| 20260505213043 | 48 | 0 | 0.0 | 2.6 | 0.00 | 0.44 | 0.44 | 96 | 1010.9 |
| 20260505211541 | 48 | 295 | 0.0 | 0.9 | 0.00 | 0.44 | 0.44 | 96 | 1011.0 |
| 20260505210046 | 48 | 0 | 0.0 | 0.0 | 0.00 | 0.44 | 0.44 | 96 | 1010.6 |
| 20260505204540 | 48 | 0 | 0.0 | 0.0 | 0.00 | 0.46 | 0.44 | 95 | 1010.3 |
| 20260505203044 | 48 | 0 | 0.0 | 0.0 | 0.00 | 0.46 | 0.44 | 95 | 1010.1 |
| 20260505201542 | 49 | 0 | 0.0 | 0.0 | 0.00 | 0.46 | 0.44 | 95 | 1009.7 |
| 20260505200050 | 49 | 0 | 0.0 | 0.9 | 0.02 | 0.46 | 0.44 | 94 | 1009.5 |
| 20260505194540 | 50 | 0 | 0.0 | 0.9 | 0.03 | 0.48 | 0.44 | 94 | 1009.1 |
| 20260505193045 | 50 | 246 | 0.0 | 4.3 | 0.03 | 0.48 | 0.44 | 95 | 1009.2 |
| 20260505191543 | 50 | 0 | 1.7 | 5.2 | 0.03 | 0.48 | 0.44 | 95 | 1009.6 |
| 20260505190044 | 50 | 101 | 0.0 | 2.6 | 0.01 | 0.45 | 0.42 | 95 | 1010.2 |
| 20260505184540 | 50 | 219 | 0.9 | 1.7 | 0.00 | 0.44 | 0.41 | 95 | 1009.7 |
| 20260505183040 | 50 | 20 | 0.9 | 4.3 | 0.00 | 0.44 | 0.40 | 95 | 1009.6 |
| 20260505181550 | 50 | 0 | 0.0 | 0.9 | 0.01 | 0.44 | 0.40 | 95 | 1009.3 |
| 20260505180043 | 50 | 0 | 0.9 | 5.2 | 0.05 | 0.44 | 0.40 | 94 | 1009.2 |